Home   Weather   50°06'N, 13°43'E   Past weeks
Flag for Czechia

Past Weather in 50°06'N, 13°43'E, Czechia — Yesterday and Last 2 Weeks

Now
34 °F

Passing clouds.


Feels Like: 34 °F
Forecast: 39 / 26 °F
Wind: 2 mph from North

Location: Václav Havel Airport Prague

Current Time: Jan 22, 2020 at 9:53:22 pm

Latest Report: Jan 22, 2020 at 9:00 pm


Visibility: N/A

Pressure: 30.51 "Hg

Humidity: 87%

Dew Point: 30 °F

Location of 50°06'N, 13°43'ELocation

Past Weather in 50°06'N, 13°43'E — Graph

°F

50°06'N, 13°43'E Temperature Yesterday

Maximum temperature yesterday: 34 °F (at 12:30 pm)
Minimum temperature yesterday: 23 °F (at 6:30 am)
Average temperature yesterday: 28 °F

High & Low Weather Summary for the Past Weeks

 TemperatureHumidityPressure
High50 °F (Jan 10, 1:00 pm)100% (Jan 8, 4:00 am)30.89 "Hg (Jan 8, 4:00 am)
Low23 °F (Jan 21, 6:30 am)61% (Jan 15, 2:30 pm)29.98 "Hg (Jan 10, 12:00 am)
Average34 °F87%30.33 "Hg
* Reported Jan 7 8:00 pm — Jan 22 8:30 pm, 50°06'N, 13°43'E. Weather by CustomWeather, © 2020

Note: Actual official high and low records may vary slightly from our data, if they occured in-between our weather recording intervals... More about our weather records

50°06'N, 13°43'E Weather History for the Previous 24 Hours

Scroll right to see more
 ConditionsComfort  
Time TempWeatherWind HumidityBarometerVisibility
8:30 pm
Wed, Jan 22
34 °FPassing clouds.3 mph87%30.51 "HgN/A
8:00 pm36 °FPassing clouds.5 mph81%30.51 "HgN/A
7:30 pm36 °FPassing clouds.5 mph81%30.48 "HgN/A
7:00 pm34 °FPassing clouds.5 mph87%30.48 "HgN/A
6:30 pm34 °FPassing clouds.5 mph87%30.48 "HgN/A
6:00 pm34 °FPassing clouds.3 mph87%30.45 "HgN/A
5:30 pm34 °FPassing clouds.3 mph87%30.45 "HgN/A
5:00 pm34 °FPassing clouds.7 mph87%30.42 "HgN/A
4:30 pm34 °FPartly sunny.7 mph81%30.42 "HgN/A
4:00 pm36 °FPartly sunny.8 mph75%30.42 "HgN/A
3:30 pm36 °FPartly sunny.8 mph75%30.42 "HgN/A
3:00 pm36 °FPartly sunny.9 mph75%30.42 "HgN/A
2:30 pm34 °FPartly sunny.8 mph81%30.42 "HgN/A
2:00 pm34 °FPartly sunny.9 mph81%30.42 "HgN/A
1:30 pm32 °FPartly sunny.9 mph87%30.42 "HgN/A
1:00 pm30 °FScattered clouds.9 mph93%30.45 "HgN/A
12:30 pm28 °FPassing clouds.9 mph100%30.45 "HgN/A
12:00 pm28 °FPassing clouds.10 mph93%30.45 "Hg5 mi
11:39 am27 °FScattered clouds.12 mph93%30.48 "Hg4 mi
11:00 am25 °FMostly cloudy.6 mph93%30.48 "Hg4 mi
10:30 am25 °FIce fog.7 mph100%30.51 "Hg3 mi
10:00 am25 °FIce fog.6 mph93%30.48 "Hg3 mi
9:30 am25 °FIce fog.6 mph93%30.48 "Hg3 mi
9:16 am25 °FIce fog.10 mph93%30.48 "Hg3 mi
9:00 am25 °FIce fog.12 mph93%30.45 "Hg2 mi
8:30 am25 °FIce fog.9 mph93%30.45 "Hg2 mi
8:00 am25 °FIce fog.9 mph93%30.48 "Hg2 mi
7:30 am25 °FIce fog.10 mph93%30.48 "Hg2 mi
7:00 am25 °FIce fog.7 mph93%30.51 "Hg2 mi
6:30 am25 °FIce fog.7 mph100%30.51 "Hg1 mi
6:00 am27 °FIce fog.9 mph93%30.48 "Hg1 mi
5:30 am25 °FCold.7 mph100%30.51 "Hg1 mi
5:12 am27 °FChilly.5 mph93%30.51 "Hg1 mi
5:00 am27 °FIce fog.6 mph93%30.51 "Hg1 mi
4:30 am25 °FIce fog.6 mph100%30.51 "Hg1 mi
4:00 am25 °FIce fog.7 mph100%30.51 "Hg1 mi
3:30 am25 °FIce fog.5 mph100%30.54 "Hg1 mi
3:10 am25 °FIce fog.3 mph100%30.54 "Hg1 mi
2:43 am25 °FCold.5 mph100%30.54 "Hg1 mi
2:20 am25 °FIce fog.5 mph100%30.57 "Hg1 mi
2:00 am25 °FIce fog.3 mph100%30.57 "Hg1 mi
1:30 am25 °FIce fog.7 mph100%30.57 "Hg1 mi
1:00 am27 °FChilly.7 mph93%30.57 "Hg1 mi
12:30 am27 °FChilly.8 mph93%30.57 "Hg1 mi
12:00 am27 °FIce fog.9 mph93%30.60 "Hg1 mi
11:30 pm
Tue, Jan 21
27 °FIce fog.7 mph93%30.60 "Hg1 mi
11:00 pm27 °FIce fog.7 mph100%30.63 "Hg1 mi
10:30 pm27 °FIce fog.7 mph93%30.63 "Hg1 mi
10:00 pm27 °FIce fog.6 mph93%30.63 "Hg1 mi
9:30 pm27 °FIce fog.5 mph93%30.66 "Hg1 mi
9:00 pm27 °FIce fog.7 mph93%30.66 "Hg1 mi
Weather by CustomWeather, © 2020

See weather overview

Advertising